QPF
0.00 0.00 0.00 0.00 0.01 0.02 0.03 0.04 0.03 0.03 0.03 0.02 0.02 0.02 0.02 0.02 0.02 0.04 0.05 0.06 0.09 0.09 0.08 0.09 0.08 0.06 0.05 0.04 0.04 0.04 0.04 0.02 0.02 0.02 0.03 0.04 0.07 0.07 0.05 0.05 0.06 0.07 0.09 0.09 0.10 0.10 0.09 0.08 0.09
0.00 0.00 0.00 0.00 0.01 0.01 0.03 0.03 0.04 0.02 0.02 0.01 0.01 0.03 0.04 0.03 0.02 0.04 0.07 0.08 0.09 0.08 0.06 0.05 0.06 0.04 0.03 0.04 0.05 0.04 0.03 0.03 0.02 0.02 0.02 0.03 0.06 0.08 0.06 0.05 0.06 0.08 0.09 0.11 0.11 0.11 0.10 0.10 0.10
0.00 0.00 0.00 0.00 0.01 0.03 0.04 0.04 0.03 0.02 0.02 0.02 0.03 0.05 0.07 0.05 0.03 0.05 0.05 0.07 0.09 0.07 0.06 0.06 0.05 0.04 0.02 0.04 0.06 0.04 0.04 0.04 0.02 0.02 0.02 0.03 0.05 0.11 0.11 0.09 0.09 0.11 0.14 0.16 0.16 0.11 0.10 0.09 0.09
0.00 0.00 0.00 0.00 0.00 0.02 0.04 0.04 0.03 0.03 0.02 0.02 0.03 0.07 0.08 0.07 0.06 0.05 0.05 0.07 0.07 0.07 0.06 0.06 0.05 0.04 0.02 0.03 0.03 0.04 0.03 0.04 0.03 0.02 0.02 0.03 0.08 0.16 0.19 0.19 0.16 0.17 0.18 0.18 0.14 0.09 0.08 0.06 0.07
0.00 0.00 0.00 0.00 0.01 0.02 0.03 0.03 0.02 0.02 0.02 0.03 0.04 0.07 0.12 0.11 0.06 0.05 0.06 0.06 0.06 0.06 0.06 0.05 0.04 0.03 0.02 0.01 0.02 0.03 0.03 0.04 0.03 0.04 0.04 0.03 0.04 0.08 0.16 0.21 0.18 0.16 0.13 0.10 0.07 0.05 0.04 0.05 0.09
0.00 0.00 0.00 0.01 0.02 0.02 0.04 0.03 0.01 0.01 0.02 0.02 0.03 0.06 0.11 0.14 0.12 0.10 0.08 0.07 0.07 0.07 0.04 0.05 0.04 0.02 0.01 0.01 0.02 0.03 0.04 0.06 0.05 0.04 0.04 0.04 0.04 0.05 0.09 0.14 0.10 0.06 0.05 0.04 0.04 0.04 0.04 0.05 0.07
0.00 0.00 0.00 0.01 0.02 0.04 0.04 0.03 0.02 0.02 0.03 0.02 0.02 0.03 0.09 0.14 0.16 0.14 0.11 0.10 0.08 0.05 0.03 0.03 0.03 0.02 0.02 0.01 0.02 0.03 0.05 0.06 0.06 0.05 0.04 0.04 0.04 0.05 0.07 0.07 0.05 0.03 0.03 0.02 0.03 0.04 0.04 0.05 0.05
0.00 0.00 0.00 0.01 0.02 0.04 0.03 0.02 0.02 0.02 0.03 0.01 0.01 0.03 0.08 0.11 0.12 0.13 0.11 0.09 0.07 0.05 0.04 0.02 0.02 0.02 0.01 0.02 0.04 0.07 0.10 0.09 0.08 0.06 0.03 0.03 0.05 0.06 0.05 0.03 0.03 0.02 0.02 0.02 0.03 0.04 0.04 0.06 0.07
0.00 0.00 0.00 0.01 0.02 0.02 0.02 0.01 0.01 0.02 0.03 0.02 0.01 0.02 0.05 0.07 0.08 0.09 0.07 0.06 0.05 0.03 0.02 0.02 0.01 0.01 0.01 0.04 0.13 0.16 0.13 0.09 0.06 0.04 0.04 0.04 0.03 0.02 0.02 0.02 0.02 0.02 0.02 0.03 0.04 0.04 0.05 0.06 0.08
0.00 0.00 0.00 0.00 0.01 0.01 0.01 0.01 0.01 0.01 0.02 0.02 0.02 0.03 0.05 0.07 0.06 0.05 0.04 0.03 0.04 0.02 0.02 0.02 0.02 0.01 0.00 0.01 0.04 0.05 0.04 0.03 0.02 0.02 0.02 0.02 0.01 0.01 0.01 0.02 0.02 0.02 0.03 0.03 0.04 0.04 0.03 0.03 0.04
0.00 0.00 0.00 0.00 0.00 0.01 0.01 0.01 0.01 0.01 0.01 0.01 0.01 0.03 0.04 0.04 0.04 0.04 0.04 0.03 0.02 0.02 0.01 0.02 0.02 0.01 0.00 0.00 0.00 0.00 0.01 0.01 0.01 0.00 0.01 0.01 0.01 0.01 0.01 0.01 0.01 0.01 0.01 0.01 0.03 0.03 0.01 0.02 0.03
0.00 0.00 0.00 0.00 0.01 0.01 0.00 0.01 0.01 0.01 0.00 0.00 0.00 0.01 0.02 0.02 0.03 0.04 0.03 0.03 0.01 0.01 0.01 0.01 0.01 0.01 0.01 0.00 0.00 0.00 0.00 0.01 0.00 0.00 0.00 0.00 0.01 0.01 0.01 0.00 0.00 0.00 0.01 0.01 0.01 0.02 0.02 0.03 0.04
0.00 0.00 0.00 0.00 0.01 0.01 0.01 0.01 0.01 0.01 0.00 0.00 0.00 0.00 0.01 0.02 0.03 0.05 0.03 0.03 0.03 0.01 0.01 0.01 0.01 0.01 0.01 0.00 0.00 0.00 0.00 0.00 0.00 0.00 0.00 0.00 0.01 0.01 0.01 0.01 0.01 0.01 0.01 0.01 0.02 0.03 0.03 0.04 0.04
0.00 0.00 0.00 0.00 0.00 0.01 0.01 0.01 0.01 0.01 0.00 0.00 0.00 0.01 0.02 0.03 0.04 0.05 0.04 0.02 0.02 0.01 0.01 0.02 0.01 0.01 0.01 0.01 0.01 0.01 0.01 0.01 0.01 0.01 0.01 0.01 0.01 0.01 0.01 0.02 0.02 0.02 0.02 0.01 0.02 0.03 0.03 0.04 0.05
0.00 0.00 0.00 0.01 0.01 0.01 0.01 0.01 0.01 0.01 0.01 0.01 0.01 0.01 0.01 0.03 0.04 0.05 0.04 0.02 0.01 0.01 0.01 0.02 0.01 0.01 0.01 0.02 0.01 0.02 0.02 0.02 0.02 0.02 0.02 0.04 0.03 0.02 0.03 0.03 0.02 0.02 0.02 0.02 0.02 0.03 0.04 0.05 0.06
0.00 0.01 0.01 0.01 0.01 0.01 0.00 0.01 0.01 0.01 0.01 0.01 0.01 0.01 0.01 0.01 0.02 0.05 0.04 0.03 0.02 0.01 0.01 0.02 0.01 0.01 0.01 0.02 0.02 0.03 0.02 0.03 0.03 0.03 0.04 0.06 0.06 0.05 0.04 0.04 0.03 0.03 0.03 0.03 0.04 0.06 0.05 0.06 0.06
0.00 0.00 0.01 0.02 0.01 0.01 0.01 0.01 0.01 0.01 0.01 0.01 0.01 0.01 0.01 0.01 0.01 0.03 0.04 0.03 0.02 0.02 0.02 0.01 0.01 0.02 0.02 0.02 0.03 0.04 0.03 0.02 0.03 0.02 0.04 0.05 0.05 0.04 0.03 0.03 0.03 0.04 0.04 0.03 0.03 0.06 0.08 0.06 0.05
0.00 0.00 0.00 0.01 0.01 0.01 0.01 0.00 0.01 0.01 0.01 0.01 0.02 0.02 0.01 0.01 0.01 0.02 0.03 0.02 0.03 0.03 0.03 0.02 0.02 0.02 0.02 0.03 0.03 0.03 0.03 0.02 0.03 0.03 0.05 0.06 0.04 0.03 0.03 0.03 0.03 0.02 0.02 0.03 0.04 0.06 0.09 0.08 0.08
0.00 0.00 0.00 0.00 0.00 0.01 0.01 0.00 0.01 0.01 0.01 0.01 0.01 0.02 0.02 0.02 0.02 0.02 0.02 0.03 0.05 0.05 0.04 0.03 0.02 0.03 0.04 0.05 0.05 0.04 0.04 0.02 0.03 0.05 0.06 0.06 0.05 0.04 0.05 0.05 0.04 0.02 0.02 0.02 0.03 0.06 0.10 0.10 0.09
0.00 0.00 0.01 0.01 0.01 0.01 0.01 0.01 0.01 0.01 0.01 0.01 0.01 0.02 0.02 0.03 0.03 0.03 0.03 0.06 0.09 0.08 0.06 0.05 0.05 0.05 0.06 0.08 0.08 0.07 0.06 0.03 0.03 0.05 0.05 0.06 0.05 0.04 0.04 0.07 0.06 0.03 0.02 0.02 0.03 0.05 0.08 0.11 0.09
0.00 0.00 0.00 0.00 0.01 0.02 0.02 0.02 0.02 0.01 0.02 0.02 0.02 0.02 0.03 0.03 0.04 0.04 0.05 0.09 0.08 0.07 0.08 0.10 0.12 0.10 0.09 0.09 0.08 0.06 0.05 0.04 0.04 0.03 0.04 0.05 0.04 0.04 0.04 0.05 0.05 0.04 0.03 0.03 0.04 0.05 0.08 0.08 0.09
0.00 0.00 0.00 0.00 0.01 0.02 0.02 0.01 0.01 0.01 0.01 0.01 0.02 0.02 0.02 0.02 0.04 0.05 0.03 0.04 0.04 0.05 0.10 0.11 0.13 0.16 0.11 0.06 0.05 0.05 0.04 0.03 0.03 0.03 0.04 0.05 0.04 0.04 0.04 0.04 0.04 0.05 0.03 0.03 0.06 0.07 0.08 0.06 0.07
0.00 0.00 0.00 0.01 0.01 0.01 0.01 0.01 0.01 0.01 0.01 0.01 0.01 0.02 0.02 0.03 0.04 0.03 0.03 0.03 0.03 0.05 0.08 0.09 0.13 0.13 0.08 0.04 0.04 0.04 0.04 0.04 0.04 0.04 0.06 0.06 0.05 0.06 0.06 0.05 0.04 0.05 0.05 0.05 0.07 0.08 0.08 0.05 0.06
0.00 0.00 0.01 0.01 0.01 0.00 0.01 0.01 0.01 0.01 0.01 0.01 0.02 0.02 0.03 0.03 0.03 0.03 0.03 0.03 0.03 0.03 0.06 0.09 0.08 0.05 0.04 0.05 0.05 0.04 0.05 0.05 0.05 0.06 0.08 0.07 0.06 0.07 0.09 0.09 0.09 0.08 0.07 0.06 0.08 0.10 0.10 0.08 0.06
0.00 0.00 0.00 0.00 0.00 0.00 0.00 0.00 0.00 0.00 0.00 0.01 0.01 0.01 0.02 0.02 0.02 0.03 0.02 0.02 0.02 0.02 0.04 0.05 0.05 0.04 0.04 0.05 0.06 0.05 0.05 0.04 0.05 0.06 0.06 0.04 0.05 0.07 0.10 0.10 0.15 0.10 0.07 0.05 0.06 0.08 0.08 0.06 0.04
0.00 0.00 0.00 0.00 0.00 0.00 0.00 0.00 0.00 0.00 0.01 0.01 0.01 0.01 0.01 0.01 0.01 0.01 0.02 0.01 0.03 0.04 0.05 0.07 0.09 0.05 0.03 0.04 0.04 0.04 0.05 0.05 0.07 0.07 0.05 0.04 0.04 0.05 0.06 0.07 0.09 0.08 0.07 0.04 0.05 0.07 0.07 0.05 0.05
0.00 0.00 0.00 0.00 0.00 0.00 0.00 0.00 0.01 0.01 0.01 0.01 0.01 0.01 0.01 0.01 0.01 0.02 0.03 0.04 0.05 0.05 0.06 0.06 0.09 0.05 0.03 0.04 0.04 0.04 0.06 0.08 0.10 0.07 0.03 0.03 0.04 0.04 0.06 0.08 0.08 0.08 0.05 0.04 0.04 0.04 0.05 0.05 0.06
0.00 0.00 0.00 0.00 0.00 0.00 0.00 0.00 0.00 0.00 0.00 0.01 0.01 0.01 0.01 0.01 0.01 0.03 0.05 0.07 0.08 0.08 0.05 0.03 0.04 0.04 0.04 0.05 0.06 0.06 0.07 0.08 0.07 0.05 0.04 0.05 0.06 0.07 0.08 0.09 0.09 0.08 0.05 0.05 0.05 0.03 0.03 0.03 0.04
0.00 0.00 0.00 0.00 0.00 0.00 0.00 0.00 0.00 0.00 0.00 0.01 0.01 0.01 0.01 0.01 0.01 0.04 0.06 0.10 0.12 0.09 0.05 0.04 0.04 0.04 0.05 0.06 0.06 0.06 0.04 0.05 0.07 0.05 0.05 0.06 0.08 0.10 0.13 0.11 0.09 0.06 0.05 0.05 0.04 0.02 0.02 0.03 0.03
0.00 0.00 0.00 0.00 0.00 0.00 0.00 0.00 0.00 0.00 0.01 0.01 0.00 0.01 0.01 0.01 0.01 0.03 0.07 0.09 0.09 0.08 0.07 0.05 0.04 0.03 0.05 0.06 0.04 0.04 0.04 0.06 0.07 0.06 0.05 0.05 0.06 0.09 0.11 0.10 0.07 0.06 0.05 0.06 0.04 0.03 0.03 0.02 0.02
MSLP
1002.85 1003.87 1005.35 1007.09 1008.88 1010.52 1011.83 1012.73 1013.21 1013.36 1013.32 1013.23 1013.21 1013.33 1013.59 1013.92 1014.25 1014.45 1014.47 1014.28 1013.90 1013.41 1012.90 1012.46 1012.18 1012.07 1012.11 1012.26 1012.46 1012.64 1012.77 1012.85 1012.89 1012.94 1013.02 1013.17 1013.40 1013.68 1013.98 1014.28 1014.53 1014.73 1014.87 1014.98 1015.08 1015.20 1015.35 1015.53 1015.73
1003.62 1004.95 1006.65 1008.49 1010.25 1011.73 1012.78 1013.35 1013.49 1013.32 1013.01 1012.73 1012.62 1012.72 1013.02 1013.45 1013.88 1014.20 1014.32 1014.23 1013.94 1013.53 1013.10 1012.74 1012.52 1012.47 1012.56 1012.74 1012.95 1013.14 1013.27 1013.34 1013.38 1013.43 1013.52 1013.66 1013.88 1014.14 1014.41 1014.65 1014.85 1014.99 1015.08 1015.15 1015.22 1015.32 1015.47 1015.65 1015.87
1004.63 1006.20 1008.02 1009.88 1011.53 1012.79 1013.55 1013.81 1013.65 1013.22 1012.72 1012.33 1012.18 1012.29 1012.64 1013.14 1013.64 1014.02 1014.21 1014.17 1013.94 1013.60 1013.24 1012.96 1012.82 1012.83 1012.97 1013.19 1013.42 1013.61 1013.75 1013.82 1013.85 1013.90 1013.98 1014.13 1014.32 1014.55 1014.78 1014.97 1015.11 1015.20 1015.25 1015.28 1015.34 1015.44 1015.59 1015.79 1016.02
1005.79 1007.50 1009.35 1011.12 1012.59 1013.60 1014.09 1014.08 1013.69 1013.10 1012.51 1012.10 1011.96 1012.12 1012.52 1013.06 1013.59 1013.99 1014.19 1014.18 1013.98 1013.69 1013.40 1013.19 1013.12 1013.20 1013.38 1013.63 1013.87 1014.06 1014.18 1014.25 1014.28 1014.32 1014.40 1014.54 1014.72 1014.92 1015.11 1015.26 1015.35 1015.40 1015.41 1015.44 1015.49 1015.60 1015.77 1015.98 1016.22
1006.99 1008.72 1010.50 1012.10 1013.34 1014.10 1014.35 1014.15 1013.63 1012.99 1012.41 1012.06 1012.00 1012.23 1012.68 1013.24 1013.76 1014.14 1014.32 1014.29 1014.10 1013.84 1013.61 1013.46 1013.46 1013.59 1013.81 1014.06 1014.30 1014.47 1014.58 1014.63 1014.65 1014.69 1014.77 1014.90 1015.07 1015.25 1015.41 1015.52 1015.59 1015.61 1015.61 1015.64 1015.70 1015.82 1016.01 1016.23 1016.47
1008.09 1009.74 1011.35 1012.72 1013.72 1014.24 1014.30 1013.99 1013.45 1012.87 1012.41 1012.19 1012.25 1012.58 1013.09 1013.65 1014.14 1014.47 1014.59 1014.53 1014.33 1014.10 1013.91 1013.82 1013.87 1014.03 1014.27 1014.51 1014.72 1014.86 1014.94 1014.96 1014.97 1015.01 1015.09 1015.23 1015.39 1015.56 1015.70 1015.79 1015.84 1015.85 1015.85 1015.88 1015.96 1016.10 1016.30 1016.53 1016.77
1009.00 1010.48 1011.86 1012.97 1013.70 1014.03 1013.98 1013.64 1013.18 1012.74 1012.46 1012.43 1012.66 1013.10 1013.65 1014.20 1014.64 1014.90 1014.97 1014.86 1014.67 1014.45 1014.30 1014.26 1014.35 1014.53 1014.75 1014.97 1015.13 1015.23 1015.26 1015.25 1015.25 1015.28 1015.37 1015.51 1015.67 1015.84 1015.97 1016.05 1016.08 1016.09 1016.10 1016.15 1016.25 1016.40 1016.61 1016.84 1017.06
1009.68 1010.94 1012.04 1012.88 1013.39 1013.56 1013.46 1013.17 1012.85 1012.61 1012.55 1012.73 1013.12 1013.66 1014.25 1014.78 1015.17 1015.36 1015.37 1015.24 1015.05 1014.87 1014.76 1014.76 1014.87 1015.05 1015.24 1015.41 1015.52 1015.55 1015.54 1015.50 1015.48 1015.52 1015.61 1015.76 1015.93 1016.09 1016.21 1016.29 1016.31 1016.32 1016.33 1016.39 1016.50 1016.67 1016.88 1017.09 1017.29
1010.15 1011.16 1012.00 1012.59 1012.91 1012.98 1012.87 1012.68 1012.52 1012.50 1012.67 1013.04 1013.57 1014.18 1014.78 1015.28 1015.61 1015.75 1015.73 1015.59 1015.41 1015.27 1015.21 1015.25 1015.37 1015.54 1015.70 1015.81 1015.85 1015.83 1015.76 1015.70 1015.67 1015.71 1015.82 1015.97 1016.15 1016.31 1016.42 1016.48 1016.49 1016.49 1016.51 1016.56 1016.68 1016.84 1017.05 1017.25 1017.42
1010.46 1011.25 1011.85 1012.24 1012.42 1012.44 1012.37 1012.29 1012.31 1012.48 1012.83 1013.34 1013.96 1014.60 1015.19 1015.64 1015.91 1016.01 1015.96 1015.84 1015.70 1015.61 1015.59 1015.67 1015.80 1015.94 1016.06 1016.11 1016.09 1016.02 1015.92 1015.84 1015.81 1015.86 1015.98 1016.14 1016.32 1016.47 1016.57 1016.61 1016.61 1016.59 1016.59 1016.64 1016.75 1016.91 1017.10 1017.28 1017.42
1010.73 1011.34 1011.76 1012.00 1012.10 1012.10 1012.09 1012.12 1012.28 1012.60 1013.06 1013.65 1014.29 1014.91 1015.44 1015.83 1016.04 1016.10 1016.05 1015.95 1015.86 1015.82 1015.86 1015.96 1016.09 1016.21 1016.29 1016.29 1016.22 1016.11 1015.99 1015.90 1015.88 1015.95 1016.08 1016.26 1016.43 1016.58 1016.66 1016.68 1016.66 1016.62 1016.60 1016.63 1016.72 1016.87 1017.04 1017.20 1017.32
1011.06 1011.54 1011.84 1012.00 1012.06 1012.08 1012.13 1012.26 1012.51 1012.91 1013.42 1014.00 1014.60 1015.14 1015.58 1015.87 1016.02 1016.05 1016.00 1015.93 1015.89 1015.90 1015.97 1016.09 1016.22 1016.32 1016.36 1016.33 1016.23 1016.09 1015.97 1015.89 1015.89 1015.97 1016.12 1016.31 1016.49 1016.62 1016.69 1016.69 1016.64 1016.58 1016.53 1016.54 1016.61 1016.74 1016.89 1017.03 1017.14
1011.53 1011.93 1012.17 1012.30 1012.37 1012.43 1012.54 1012.73 1013.03 1013.43 1013.91 1014.42 1014.90 1015.32 1015.63 1015.82 1015.90 1015.89 1015.84 1015.80 1015.79 1015.84 1015.94 1016.07 1016.19 1016.27 1016.29 1016.23 1016.12 1015.99 1015.87 1015.81 1015.84 1015.95 1016.11 1016.31 1016.49 1016.61 1016.67 1016.65 1016.58 1016.50 1016.43 1016.42 1016.46 1016.56 1016.69 1016.83 1016.92
1012.16 1012.53 1012.76 1012.90 1013.00 1013.11 1013.27 1013.49 1013.79 1014.14 1014.53 1014.90 1015.24 1015.50 1015.67 1015.74 1015.74 1015.69 1015.64 1015.61 1015.62 1015.69 1015.80 1015.93 1016.04 1016.10 1016.10 1016.05 1015.94 1015.83 1015.75 1015.72 1015.77 1015.90 1016.08 1016.27 1016.45 1016.57 1016.62 1016.59 1016.51 1016.41 1016.32 1016.27 1016.29 1016.37 1016.48 1016.60 1016.71
1012.91 1013.28 1013.52 1013.71 1013.87 1014.03 1014.23 1014.46 1014.71 1014.98 1015.23 1015.44 1015.60 1015.69 1015.71 1015.68 1015.60 1015.51 1015.44 1015.41 1015.43 1015.50 1015.60 1015.72 1015.82 1015.88 1015.89 1015.85 1015.78 1015.70 1015.65 1015.66 1015.74 1015.88 1016.06 1016.25 1016.41 1016.53 1016.56 1016.53 1016.43 1016.32 1016.21 1016.13 1016.12 1016.16 1016.26 1016.38 1016.49
1013.71 1014.08 1014.36 1014.60 1014.83 1015.06 1015.29 1015.50 1015.70 1015.85 1015.95 1015.99 1015.97 1015.89 1015.78 1015.64 1015.50 1015.38 1015.29 1015.25 1015.26 1015.32 1015.41 1015.51 1015.60 1015.67 1015.71 1015.71 1015.69 1015.66 1015.66 1015.70 1015.79 1015.93 1016.10 1016.27 1016.41 1016.50 1016.52 1016.47 1016.37 1016.23 1016.10 1015.99 1015.94 1015.94 1016.01 1016.12 1016.25
1014.44 1014.82 1015.16 1015.48 1015.78 1016.07 1016.33 1016.52 1016.64 1016.67 1016.62 1016.49 1016.30 1016.09 1015.86 1015.64 1015.45 1015.31 1015.21 1015.16 1015.15 1015.19 1015.27 1015.36 1015.46 1015.55 1015.63 1015.69 1015.74 1015.78 1015.83 1015.90 1015.99 1016.11 1016.24 1016.36 1016.46 1016.52 1016.51 1016.44 1016.31 1016.15 1015.98 1015.83 1015.72 1015.68 1015.71 1015.81 1015.95
1015.00 1015.42 1015.83 1016.24 1016.64 1017.00 1017.28 1017.46 1017.50 1017.41 1017.20 1016.91 1016.58 1016.25 1015.93 1015.66 1015.45 1015.29 1015.19 1015.13 1015.12 1015.14 1015.20 1015.29 1015.41 1015.55 1015.69 1015.83 1015.96 1016.07 1016.18 1016.27 1016.35 1016.43 1016.50 1016.56 1016.60 1016.59 1016.54 1016.43 1016.26 1016.06 1015.84 1015.63 1015.46 1015.36 1015.34 1015.42 1015.56
1015.34 1015.82 1016.33 1016.86 1017.38 1017.82 1018.14 1018.28 1018.25 1018.04 1017.69 1017.26 1016.80 1016.37 1015.99 1015.69 1015.48 1015.33 1015.23 1015.18 1015.16 1015.18 1015.24 1015.34 1015.49 1015.68 1015.90 1016.12 1016.34 1016.53 1016.69 1016.79 1016.86 1016.89 1016.89 1016.87 1016.82 1016.74 1016.62 1016.45 1016.23 1015.97 1015.69 1015.41 1015.16 1014.99 1014.91 1014.94 1015.08
1015.46 1016.04 1016.69 1017.37 1018.02 1018.56 1018.91 1019.04 1018.92 1018.59 1018.11 1017.55 1016.98 1016.47 1016.06 1015.75 1015.55 1015.43 1015.35 1015.32 1015.30 1015.32 1015.38 1015.50 1015.68 1015.93 1016.22 1016.54 1016.85 1017.11 1017.32 1017.44 1017.49 1017.47 1017.39 1017.28 1017.14 1016.97 1016.77 1016.53 1016.24 1015.91 1015.55 1015.19 1014.86 1014.60 1014.45 1014.43 1014.55
1015.40 1016.12 1016.96 1017.83 1018.63 1019.27 1019.67 1019.77 1019.58 1019.13 1018.52 1017.84 1017.17 1016.60 1016.16 1015.87 1015.70 1015.61 1015.57 1015.56 1015.56 1015.57 1015.63 1015.76 1015.97 1016.27 1016.63 1017.03 1017.42 1017.75 1018.00 1018.15 1018.18 1018.11 1017.97 1017.77 1017.54 1017.29 1017.01 1016.69 1016.33 1015.93 1015.49 1015.05 1014.63 1014.29 1014.06 1013.98 1014.07
1015.26 1016.17 1017.22 1018.29 1019.27 1020.02 1020.46 1020.53 1020.26 1019.70 1018.97 1018.17 1017.42 1016.81 1016.36 1016.09 1015.96 1015.92 1015.93 1015.94 1015.95 1015.96 1016.02 1016.14 1016.36 1016.68 1017.09 1017.54 1018.00 1018.39 1018.69 1018.85 1018.88 1018.78 1018.59 1018.33 1018.03 1017.71 1017.36 1016.97 1016.55 1016.09 1015.58 1015.07 1014.58 1014.15 1013.85 1013.71 1013.75
1015.12 1016.25 1017.53 1018.82 1019.96 1020.82 1021.29 1021.34 1020.99 1020.32 1019.47 1018.58 1017.77 1017.13 1016.70 1016.46 1016.38 1016.40 1016.45 1016.49 1016.50 1016.51 1016.54 1016.64 1016.85 1017.17 1017.59 1018.07 1018.56 1018.99 1019.33 1019.52 1019.55 1019.45 1019.24 1018.94 1018.60 1018.23 1017.84 1017.42 1016.95 1016.45 1015.90 1015.33 1014.78 1014.30 1013.93 1013.73 1013.71
1015.08 1016.43 1017.92 1019.40 1020.69 1021.63 1022.12 1022.13 1021.71 1020.95 1020.02 1019.07 1018.22 1017.58 1017.18 1017.00 1016.99 1017.07 1017.16 1017.22 1017.24 1017.23 1017.23 1017.28 1017.44 1017.73 1018.13 1018.61 1019.10 1019.56 1019.92 1020.14 1020.20 1020.11 1019.90 1019.61 1019.26 1018.88 1018.47 1018.04 1017.56 1017.04 1016.48 1015.89 1015.31 1014.79 1014.38 1014.12 1014.04
1015.15 1016.69 1018.37 1019.99 1021.38 1022.37 1022.86 1022.84 1022.36 1021.54 1020.56 1019.58 1018.75 1018.14 1017.80 1017.69 1017.76 1017.91 1018.06 1018.15 1018.16 1018.13 1018.08 1018.07 1018.17 1018.39 1018.74 1019.19 1019.67 1020.13 1020.50 1020.74 1020.83 1020.78 1020.60 1020.33 1020.01 1019.65 1019.26 1018.84 1018.38 1017.88 1017.33 1016.75 1016.18 1015.65 1015.21 1014.92 1014.78
1015.34 1017.01 1018.80 1020.51 1021.94 1022.94 1023.41 1023.35 1022.84 1021.99 1021.01 1020.06 1019.28 1018.75 1018.51 1018.50 1018.66 1018.89 1019.09 1019.21 1019.23 1019.17 1019.07 1019.01 1019.03 1019.18 1019.46 1019.85 1020.30 1020.74 1021.11 1021.37 1021.49 1021.47 1021.34 1021.11 1020.83 1020.51 1020.17 1019.79 1019.38 1018.92 1018.42 1017.88 1017.34 1016.83 1016.40 1016.08 1015.91
1015.59 1017.33 1019.15 1020.86 1022.27 1023.23 1023.66 1023.57 1023.05 1022.23 1021.30 1020.43 1019.76 1019.35 1019.23 1019.34 1019.61 1019.93 1020.19 1020.35 1020.38 1020.30 1020.17 1020.05 1020.01 1020.10 1020.31 1020.64 1021.04 1021.44 1021.80 1022.06 1022.21 1022.22 1022.13 1021.95 1021.72 1021.45 1021.16 1020.84 1020.49 1020.10 1019.66 1019.20 1018.72 1018.25 1017.85 1017.53 1017.33
1015.85 1017.57 1019.34 1020.98 1022.30 1023.18 1023.55 1023.44 1022.94 1022.19 1021.37 1020.64 1020.12 1019.88 1019.90 1020.15 1020.54 1020.94 1021.27 1021.47 1021.53 1021.45 1021.31 1021.16 1021.08 1021.12 1021.28 1021.55 1021.90 1022.27 1022.60 1022.86 1023.00 1023.04 1022.98 1022.84 1022.65 1022.43 1022.20 1021.94 1021.65 1021.33 1020.98 1020.59 1020.19 1019.79 1019.43 1019.13 1018.92
1016.06 1017.68 1019.33 1020.81 1022.00 1022.76 1023.08 1022.97 1022.53 1021.89 1021.23 1020.69 1020.36 1020.29 1020.48 1020.87 1021.36 1021.84 1022.24 1022.48 1022.57 1022.53 1022.40 1022.26 1022.18 1022.20 1022.33 1022.57 1022.88 1023.21 1023.52 1023.75 1023.89 1023.93 1023.88 1023.76 1023.60 1023.41 1023.22 1023.01 1022.79 1022.54 1022.26 1021.96 1021.64 1021.32 1021.02 1020.76 1020.55
1016.20 1017.66 1019.12 1020.41 1021.42 1022.06 1022.32 1022.23 1021.88 1021.40 1020.94 1020.60 1020.48 1020.61 1020.96 1021.46 1022.04 1022.59 1023.03 1023.32 1023.46 1023.45 1023.37 1023.28 1023.23 1023.27 1023.41 1023.64 1023.93 1024.23 1024.51 1024.71 1024.83 1024.85 1024.80 1024.68 1024.53 1024.37 1024.20 1024.02 1023.85 1023.66 1023.45 1023.23 1022.99 1022.74 1022.51 1022.29 1022.10
Thickness
5845 5845 5840 5827 5801 5773 5764 5773 5783 5781 5781 5789 5792 5787 5778 5771 5766 5760 5777 5786 5787 5786 5785 5784 5783 5783 5782 5782 5781 5780 5780 5779 5778 5777 5776 5775 5774 5772 5770 5769 5768 5766 5765 5763 5761 5759 5757 5755 5754
5847 5845 5834 5814 5779 5753 5760 5776 5779 5783 5789 5794 5793 5787 5779 5775 5779 5778 5781 5785 5787 5785 5784 5783 5782 5782 5781 5780 5780 5779 5778 5777 5776 5775 5774 5773 5772 5770 5768 5767 5765 5764 5763 5761 5759 5757 5755 5753 5752
5848 5844 5821 5797 5772 5759 5764 5780 5783 5790 5796 5795 5788 5787 5781 5775 5780 5781 5785 5787 5786 5784 5782 5782 5781 5780 5780 5779 5778 5777 5776 5776 5775 5774 5772 5772 5770 5769 5767 5765 5764 5762 5761 5759 5757 5755 5753 5752 5750
5843 5829 5813 5787 5773 5778 5781 5786 5791 5790 5794 5795 5789 5780 5783 5788 5787 5787 5788 5787 5784 5782 5781 5781 5780 5779 5778 5778 5777 5776 5775 5774 5773 5772 5771 5769 5768 5767 5765 5763 5762 5761 5759 5757 5756 5754 5752 5750 5749
5838 5815 5790 5773 5778 5787 5792 5795 5796 5789 5787 5789 5787 5776 5775 5786 5791 5789 5787 5785 5782 5781 5780 5779 5779 5778 5777 5776 5775 5774 5773 5772 5771 5770 5769 5768 5766 5765 5763 5761 5760 5759 5756 5755 5754 5752 5750 5749 5747
5819 5804 5774 5766 5778 5789 5795 5799 5795 5788 5787 5788 5785 5776 5773 5784 5786 5786 5786 5784 5782 5781 5779 5778 5778 5777 5776 5775 5774 5773 5772 5770 5769 5768 5767 5766 5765 5763 5761 5759 5758 5757 5755 5753 5752 5751 5749 5747 5746
5811 5793 5777 5777 5778 5784 5794 5801 5794 5789 5787 5788 5789 5775 5774 5781 5785 5786 5784 5782 5781 5780 5778 5777 5777 5776 5775 5774 5772 5771 5770 5768 5767 5766 5765 5763 5762 5760 5759 5757 5757 5755 5753 5752 5750 5749 5747 5746 5744
5819 5796 5782 5779 5780 5785 5799 5802 5800 5795 5791 5799 5795 5777 5773 5781 5786 5784 5781 5779 5778 5777 5777 5776 5775 5775 5773 5772 5771 5769 5768 5766 5765 5764 5763 5761 5760 5758 5757 5756 5755 5754 5752 5750 5749 5748 5746 5745 5743
5823 5788 5775 5784 5787 5792 5802 5799 5801 5806 5799 5798 5798 5792 5789 5788 5785 5780 5776 5774 5774 5774 5774 5774 5774 5773 5772 5770 5769 5768 5766 5765 5763 5762 5761 5759 5758 5757 5756 5755 5754 5752 5751 5750 5748 5747 5745 5744 5742
5810 5783 5791 5803 5805 5803 5804 5802 5801 5797 5790 5788 5790 5792 5791 5786 5781 5777 5773 5771 5771 5771 5772 5772 5772 5771 5770 5769 5768 5766 5765 5763 5761 5760 5759 5757 5756 5755 5754 5753 5752 5751 5750 5749 5747 5746 5744 5742 5741
5811 5798 5806 5812 5816 5813 5805 5803 5805 5794 5784 5789 5789 5788 5787 5783 5779 5776 5774 5773 5772 5772 5772 5772 5771 5770 5769 5767 5766 5764 5763 5761 5760 5758 5757 5756 5755 5753 5752 5751 5750 5750 5749 5747 5746 5744 5742 5741 5740
5810 5810 5814 5814 5818 5813 5807 5804 5800 5797 5798 5805 5801 5796 5789 5782 5779 5777 5775 5773 5773 5772 5772 5772 5771 5769 5768 5766 5765 5763 5761 5760 5759 5757 5756 5754 5753 5752 5751 5750 5748 5748 5747 5745 5744 5743 5742 5740 5739
5809 5810 5816 5817 5816 5813 5809 5802 5800 5799 5806 5807 5801 5794 5788 5784 5781 5780 5779 5776 5775 5773 5773 5772 5771 5769 5767 5766 5764 5762 5761 5760 5758 5756 5755 5754 5752 5751 5750 5748 5747 5746 5745 5744 5743 5742 5741 5740 5739
5810 5811 5812 5813 5813 5812 5803 5800 5799 5797 5805 5801 5796 5790 5788 5785 5782 5779 5777 5776 5775 5775 5774 5774 5772 5771 5768 5766 5764 5763 5761 5760 5758 5756 5755 5753 5752 5750 5749 5748 5747 5746 5745 5744 5742 5741 5740 5739 5738
5812 5804 5802 5806 5808 5807 5803 5789 5793 5800 5802 5795 5792 5790 5788 5786 5784 5782 5781 5779 5778 5777 5776 5775 5773 5772 5769 5767 5765 5763 5761 5760 5758 5756 5755 5753 5751 5750 5748 5747 5746 5746 5744 5743 5742 5741 5740 5739 5738
5801 5788 5780 5795 5803 5804 5794 5775 5792 5800 5798 5791 5790 5789 5787 5786 5786 5786 5785 5783 5782 5780 5778 5777 5776 5773 5770 5768 5766 5763 5762 5760 5758 5756 5755 5753 5751 5749 5748 5747 5746 5745 5744 5742 5741 5740 5739 5738 5737
5776 5770 5773 5786 5800 5799 5790 5778 5791 5798 5795 5789 5789 5789 5788 5786 5786 5787 5788 5786 5785 5782 5780 5778 5777 5774 5772 5769 5766 5764 5762 5760 5758 5756 5754 5752 5751 5749 5748 5746 5745 5744 5743 5742 5741 5740 5739 5736 5735
5766 5769 5772 5777 5792 5793 5784 5781 5789 5794 5793 5789 5789 5789 5788 5787 5788 5790 5789 5788 5786 5784 5781 5779 5778 5776 5773 5769 5766 5763 5761 5760 5758 5756 5754 5753 5752 5750 5748 5746 5745 5743 5742 5741 5740 5739 5738 5736 5735
5778 5772 5769 5778 5793 5788 5780 5778 5785 5791 5790 5788 5787 5787 5787 5788 5791 5792 5790 5789 5786 5784 5781 5779 5776 5775 5772 5768 5763 5760 5758 5759 5758 5756 5755 5754 5752 5750 5748 5746 5744 5743 5742 5741 5739 5738 5737 5735 5734
5776 5770 5769 5776 5789 5784 5776 5776 5785 5789 5790 5792 5790 5789 5789 5788 5788 5790 5790 5790 5787 5784 5782 5779 5776 5775 5773 5770 5766 5763 5761 5759 5758 5757 5755 5754 5752 5751 5749 5747 5745 5743 5742 5740 5739 5737 5735 5734 5733
5772 5769 5770 5771 5778 5780 5775 5767 5775 5786 5791 5793 5794 5794 5792 5791 5788 5790 5790 5790 5788 5785 5783 5782 5778 5776 5774 5771 5767 5764 5760 5758 5756 5755 5754 5753 5752 5751 5749 5748 5746 5744 5742 5740 5739 5737 5735 5731 5731
5763 5779 5777 5773 5762 5752 5764 5744 5765 5775 5781 5786 5790 5793 5794 5795 5794 5792 5791 5790 5790 5789 5787 5784 5780 5776 5774 5772 5767 5763 5759 5755 5755 5754 5754 5753 5752 5751 5749 5748 5747 5745 5743 5741 5739 5738 5736 5733 5730
5771 5780 5775 5768 5757 5748 5752 5745 5754 5770 5773 5783 5791 5795 5797 5798 5797 5795 5795 5794 5793 5791 5788 5784 5781 5777 5774 5772 5769 5764 5760 5758 5756 5755 5753 5752 5751 5750 5749 5748 5746 5745 5743 5742 5740 5739 5737 5735 5733
5777 5767 5757 5746 5741 5729 5743 5741 5747 5761 5776 5786 5794 5798 5800 5801 5800 5799 5797 5796 5794 5792 5789 5785 5781 5777 5775 5772 5769 5765 5761 5758 5755 5753 5752 5751 5750 5749 5749 5748 5746 5745 5743 5742 5740 5739 5737 5736 5734
5767 5743 5721 5721 5712 5719 5740 5740 5747 5776 5786 5791 5795 5799 5802 5803 5802 5799 5797 5795 5793 5792 5789 5786 5781 5777 5775 5771 5769 5767 5763 5759 5755 5754 5752 5750 5749 5748 5748 5747 5745 5744 5743 5741 5740 5738 5737 5736 5734
5755 5747 5721 5710 5708 5716 5733 5734 5757 5784 5791 5796 5799 5802 5803 5803 5803 5802 5800 5798 5795 5793 5790 5786 5782 5778 5775 5772 5770 5769 5765 5761 5758 5755 5753 5751 5749 5749 5748 5746 5744 5743 5742 5741 5739 5738 5736 5735 5733
5748 5740 5742 5720 5716 5713 5722 5739 5763 5785 5788 5792 5795 5797 5799 5801 5803 5803 5801 5799 5796 5793 5790 5788 5783 5779 5776 5774 5771 5769 5765 5762 5758 5756 5754 5752 5750 5749 5747 5745 5743 5742 5740 5739 5738 5736 5734 5733 5731
5757 5742 5726 5715 5702 5704 5720 5730 5742 5768 5776 5784 5788 5791 5795 5799 5801 5803 5801 5799 5798 5795 5792 5788 5784 5779 5777 5774 5771 5769 5765 5762 5759 5755 5753 5751 5749 5747 5746 5744 5742 5740 5738 5737 5735 5734 5732 5731 5729
5743 5736 5722 5710 5713 5701 5705 5725 5764 5769 5776 5779 5785 5789 5792 5795 5797 5799 5799 5798 5797 5794 5790 5786 5782 5779 5776 5773 5770 5767 5764 5761 5757 5754 5752 5750 5748 5746 5744 5742 5740 5738 5736 5734 5733 5731 5730 5728 5727
5752 5739 5728 5717 5708 5706 5707 5726 5773 5773 5776 5779 5783 5788 5792 5794 5795 5796 5795 5793 5790 5788 5786 5783 5780 5777 5775 5772 5769 5766 5762 5759 5755 5753 5750 5748 5746 5744 5742 5739 5737 5735 5733 5731 5730 5729 5727 5726 5724